Date String (YYYY-MM-DD hh:mm:ss) UTC,Instrument flags,Ambient pressure (hPa),Sample flow (lpm),Bypass flow (lpm),Sample temperature (°C),Ambient temperature (°C),ASC tube jacket temperature (°C),LED temperature (°C),Box temperature (°C),Sample RH (%),Span deviation,Mass concentration (μg/m³),Mass concentration (μg/m³),Mass concentration (μg/m³)
DateTimeUTC,F1_M11,P_M11,Q1_M11,Q2_M11,T1_M11,T2_M11,T3_M11,T4_M11,T5_M11,U1_M11,ZSPAN_M11,X0_M11,X2_M11,X1_M11
2022-02-13 23:00:00,,0828.1,5.00,0.00,25.1,24.0,00.0,34.1,26.7,06.0,0000.0,0001.20,0000.74,0000.55
2022-02-13 23:01:00,,0828.1,5.01,0.00,25.1,23.9,00.0,34.1,26.7,06.1,0000.0,0001.73,0000.73,0000.56
2022-02-13 23:02:00,,0828.1,4.98,0.00,25.1,23.9,00.0,34.1,26.7,06.3,0000.0,0001.97,0000.75,0000.56
2022-02-13 23:03:00,,0828.1,5.01,0.00,25.1,24.0,00.0,34.1,26.7,06.5,0000.0,0001.94,0000.74,0000.56
2022-02-13 23:04:00,,0828.0,4.99,0.00,25.1,23.9,00.0,34.1,26.6,06.4,0000.0,0001.94,0000.74,0000.56
2022-02-13 23:05:00,,0828.0,5.01,0.00,25.1,23.9,00.0,34.1,26.6,06.2,0000.0,0001.97,0000.75,0000.57
2022-02-13 23:06:00,,0828.0,5.00,0.00,25.0,24.0,00.0,34.1,26.7,06.3,0000.0,0001.98,0000.74,0000.56
2022-02-13 23:07:00,,0828.0,5.00,0.00,25.0,24.0,00.0,34.1,26.6,06.2,0000.0,0001.91,0000.72,0000.56
2022-02-13 23:08:00,,0828.0,5.00,0.00,25.0,23.9,00.0,34.1,26.6,05.8,0000.0,0001.89,0000.71,0000.55
2022-02-13 23:09:00,,0828.0,5.00,0.00,25.0,23.9,00.0,34.1,26.6,06.1,0000.0,0001.88,0000.71,0000.55
2022-02-13 23:10:00,,0828.1,5.00,0.00,25.0,23.8,00.0,34.0,26.6,06.4,0000.0,0001.81,0000.69,0000.55
2022-02-13 23:11:00,,0828.3,5.00,0.00,25.0,23.9,00.0,34.0,26.6,06.0,0000.0,0001.81,0000.69,0000.55
2022-02-13 23:12:00,,0828.1,5.00,0.00,25.0,23.9,00.0,34.0,26.6,06.3,0000.0,0001.26,0000.68,0000.55
2022-02-13 23:13:00,,0828.1,4.99,0.00,24.9,23.8,00.0,34.0,26.6,06.4,0000.0,0001.03,0000.68,0000.55
2022-02-13 23:14:00,,0828.1,5.01,0.00,25.0,23.9,00.0,34.0,26.6,06.4,0000.0,0001.08,0000.70,0000.56
2022-02-13 23:15:00,,0828.0,4.99,0.00,24.9,23.9,00.0,34.0,26.6,06.5,0000.0,0001.13,0000.73,0000.57
2022-02-13 23:16:00,,0827.9,5.01,0.00,24.9,23.8,00.0,34.0,26.6,06.0,0000.0,0001.17,0000.76,0000.57
2022-02-13 23:17:00,,0828.0,4.99,0.00,24.9,23.8,00.0,34.0,26.6,05.7,0000.0,0001.24,0000.79,0000.59
2022-02-13 23:18:00,,0827.9,5.01,0.00,24.9,23.8,00.0,34.0,26.5,06.4,0000.0,0001.25,0000.80,0000.60
2022-02-13 23:19:00,,0827.9,5.00,0.00,24.9,23.8,00.0,34.0,26.5,06.7,0000.0,0001.35,0000.84,0000.61
2022-02-13 23:20:00,,0827.9,4.99,0.00,24.9,23.8,00.0,34.0,26.6,06.0,0000.0,0001.37,0000.86,0000.62
2022-02-13 23:21:00,,0827.9,5.00,0.00,24.9,23.8,00.0,33.9,26.5,06.4,0000.0,0001.45,0000.90,0000.64
2022-02-13 23:22:00,,0827.9,4.99,0.00,24.9,23.7,00.0,33.9,26.6,06.2,0000.0,0001.53,0000.93,0000.64
2022-02-13 23:23:00,,0827.9,4.99,0.00,24.9,23.8,00.0,33.9,26.5,05.9,0000.0,0001.66,0000.97,0000.66
2022-02-13 23:24:00,,0827.9,5.01,0.00,24.9,23.8,00.0,33.9,26.5,06.4,0000.0,0001.74,0001.02,0000.67
2022-02-13 23:25:00,,0828.0,5.00,0.00,24.9,23.7,00.0,33.9,26.5,05.9,0000.0,0001.75,0001.02,0000.66
2022-02-13 23:26:00,,0827.9,5.00,0.00,24.9,23.8,00.0,33.9,26.5,06.6,0000.0,0001.68,0000.99,0000.66
2022-02-13 23:27:00,,0827.8,5.01,0.00,24.9,23.8,00.0,33.9,26.5,06.2,0000.0,0001.59,0000.94,0000.65
2022-02-13 23:28:00,,0827.9,4.98,0.00,24.9,23.8,00.0,33.9,26.6,05.8,0000.0,0001.48,0000.92,0000.65
2022-02-13 23:29:00,,0827.9,5.01,0.00,24.9,23.8,00.0,33.9,26.6,05.8,0000.0,0001.46,0000.92,0000.66
2022-02-13 23:30:00,,0827.9,5.00,0.00,24.9,23.9,00.0,33.9,26.6,05.7,0000.0,0001.37,0000.90,0000.65
2022-02-13 23:31:00,,0828.0,5.00,0.00,24.8,23.9,00.0,33.9,26.6,06.4,0000.0,0001.41,0000.90,0000.65
2022-02-13 23:32:00,,0827.9,5.01,0.00,24.8,23.9,00.0,33.9,26.5,06.7,0000.0,0001.37,0000.88,0000.64
2022-02-13 23:33:00,,0827.9,4.99,0.00,24.8,23.9,00.0,33.9,26.5,06.8,0000.0,0001.28,0000.85,0000.64
2022-02-13 23:34:00,,0828.0,5.00,0.00,24.8,23.9,00.0,33.9,26.5,06.5,0000.0,0001.16,0000.81,0000.63
2022-02-13 23:35:00,,0827.9,5.01,0.00,24.8,23.8,00.0,33.9,26.5,06.6,0000.0,0001.11,0000.78,0000.62
2022-02-13 23:36:00,,0827.9,4.99,0.00,24.8,23.8,00.0,33.9,26.5,06.2,0000.0,0001.19,0000.81,0000.64
2022-02-13 23:37:00,,0827.9,5.01,0.00,24.8,23.8,00.0,33.9,26.5,06.2,0000.0,0001.31,0000.84,0000.64
2022-02-13 23:38:00,,0827.9,4.99,0.00,24.9,23.8,00.0,33.9,26.5,06.2,0000.0,0001.48,0000.86,0000.65
2022-02-13 23:39:00,,0828.0,5.00,0.00,24.9,23.8,00.0,33.9,26.5,06.5,0000.0,0002.08,0000.87,0000.65
2022-02-13 23:40:00,,0828.0,4.99,0.00,24.9,23.8,00.0,33.9,26.6,06.5,0000.0,0002.08,0000.86,0000.64
2022-02-13 23:41:00,,0827.9,5.01,0.00,24.9,23.8,00.0,33.9,26.6,06.5,0000.0,0002.10,0000.86,0000.65
2022-02-13 23:42:00,,0828.1,4.99,0.00,24.9,23.8,00.0,33.9,26.5,06.1,0000.0,0002.09,0000.86,0000.65
2022-02-13 23:43:00,,0828.2,5.01,0.00,24.9,23.8,00.0,33.9,26.5,06.2,0000.0,0002.21,0000.87,0000.65
2022-02-13 23:44:00,,0828.0,5.00,0.00,24.9,23.8,00.0,33.9,26.6,06.0,0000.0,0002.25,0000.89,0000.66
2022-02-13 23:45:00,,0828.0,5.02,0.00,24.9,23.9,00.0,33.9,26.6,05.4,0000.0,0002.30,0000.91,0000.66
2022-02-13 23:46:00,,0828.0,5.01,0.00,24.9,23.9,00.0,33.9,26.5,06.0,0000.0,0003.07,0000.91,0000.66
2022-02-13 23:47:00,,0828.1,4.99,0.00,24.9,23.9,00.0,33.9,26.6,06.0,0000.0,0004.04,0000.89,0000.65
2022-02-13 23:48:00,,0828.0,5.01,0.00,24.9,24.0,00.0,33.9,26.6,06.0,0000.0,0003.91,0000.86,0000.64
2022-02-13 23:49:00,,0828.1,5.00,0.00,24.9,24.0,00.0,33.9,26.6,05.8,0000.0,0003.80,0000.84,0000.63
2022-02-13 23:50:00,,0827.9,5.01,0.00,24.9,23.9,00.0,33.9,26.5,06.4,0000.0,0003.19,0000.85,0000.64
2022-02-13 23:51:00,,0828.1,5.01,0.00,24.9,24.0,00.0,33.9,26.6,06.1,0000.0,0003.20,0000.85,0000.64
2022-02-13 23:52:00,,0828.3,4.99,0.00,24.9,24.0,00.0,33.9,26.6,06.0,0000.0,0003.18,0000.84,0000.64
2022-02-13 23:53:00,,0828.0,5.01,0.00,24.9,24.0,00.0,33.9,26.6,06.3,0000.0,0003.23,0000.83,0000.64
2022-02-13 23:54:00,,0827.9,4.99,0.00,24.9,23.9,00.0,33.9,26.6,06.0,0000.0,0003.09,0000.81,0000.64
2022-02-13 23:55:00,,0827.9,5.02,0.00,24.9,23.9,00.0,33.9,26.6,05.5,0000.0,0002.98,0000.78,0000.62
2022-02-13 23:56:00,,0828.0,4.99,0.00,24.9,23.9,00.0,33.9,26.7,05.6,0000.0,0002.93,0000.77,0000.62
2022-02-13 23:57:00,,0827.9,5.00,0.00,24.9,24.0,00.0,33.9,26.7,05.8,0000.0,0002.64,0000.76,0000.62
2022-02-13 23:58:00,,0827.9,4.98,0.00,24.9,24.0,00.0,33.9,26.6,05.7,0000.0,0001.13,0000.77,0000.62
2022-02-13 23:59:00,,0827.9,5.02,0.00,24.9,24.0,00.0,33.9,26.6,05.6,0000.0,0001.27,0000.81,0000.61
